Location: Unspecified
(0.0000°N, 0.0000°E)
Time: 23:50:33
(UTC+00:00)

Milstar 3 - Visible Passes

Search period start: 23 April 2019 00:00
Search period end: 03 May 2019 00:00
Orbit: 1092 x 5153 km, 28.2° (Epoch: 22 March)

Date Brightness Start Highest point End Pass type
(mag) Time Alt. Az. Time Alt. Az. Time Alt. Az.
23 Apr 4.8 03:48:05 18° NW 03:56:14 55° NE 04:15:41 10° ESE visible
23 Apr 4.8 18:16:43 10° WSW 18:33:40 55° NW 18:42:30 10° NE visible
23 Apr 5.4 21:18:06 10° NNW 21:18:49 10° NNW 21:19:31 10° NNW visible
24 Apr 4.7 02:50:36 30° N 02:53:53 36° NE 03:07:50 10° E visible
24 Apr 5.0 05:27:39 10° WNW 05:40:25 78° SSW 06:06:54 10° SE visible
24 Apr 5.2 20:08:50 10° WNW 20:16:19 19° NNW 20:21:48 10° NNE visible
25 Apr 5.3 01:53:09 21° NE 01:53:09 21° NE 02:00:13 10° E visible
25 Apr 4.6 04:26:46 13° NW 04:36:54 83° NNE 04:59:20 10° ESE visible
25 Apr 5.2 19:01:05 10° W 19:14:04 33° NW 19:21:49 10° NNE visible
26 Apr 4.4 03:29:20 34° NNW 03:34:16 60° NE 03:52:00 10° ESE visible
27 Apr 4.6 02:31:56 39° NNE 02:32:10 39° NE 02:44:58 10° E visible
27 Apr 4.8 05:06:35 10° WNW 05:18:11 70° SSW 05:42:18 10° SE visible
27 Apr 5.4 19:46:47 10° WNW 19:54:50 19° NNW 20:00:37 10° NNE visible
28 Apr 5.5 01:34:32 17° ENE 01:34:32 17° ENE 01:38:13 10° E visible
28 Apr 4.2 04:08:10 27° WNW 04:14:55 90° SSW 04:35:10 10° ESE visible
28 Apr 5.4 18:38:11 10° W 18:52:18 31° NW 19:00:38 10° NNE visible
29 Apr 3.9 03:10:46 59° N 03:12:28 66° NE 03:28:31 10° ESE visible
29 Apr 5.6 20:35:13 10° NNW 20:36:18 10° NNW 20:37:20 10° NNW visible
30 Apr 4.8 02:13:23 36° ENE 02:13:23 36° ENE 02:22:18 10° ESE visible
30 Apr 4.6 04:47:01 17° WNW 04:56:11 63° SSW 05:17:49 10° SE visible
30 Apr 5.5 19:24:33 10° WNW 19:33:20 19° NNW 19:39:30 10° NNE visible
01 May 5.9 01:16:00 11° E 01:16:00 11° E 01:16:24 10° E visible
01 May 3.9 03:49:37 50° WNW 03:53:06 81° SSW 04:11:13 10° ESE visible
01 May 5.5 18:15:05 10° W 18:30:27 30° NNW 18:39:27 10° NNE visible
02 May 3.9 02:52:14 66° E 02:52:14 66° E 03:05:15 10° ESE visible
02 May 5.1 05:26:52 10° W 05:38:20 45° SSW 06:00:27 10° SE visible
02 May 5.6 20:12:41 10° NW 20:15:03 11° NNW 20:17:13 10° N visible
